Time,TemperatureF,DewpointF,PressureIn,WindDirection,WindDirectionDegrees,WindSpeedMPH,WindSpeedGustMPH,Humidity,HourlyPrecipIn,Conditions,Clouds,dailyrainin,SoftwareType,DateUTC
2013-03-03 00:01:00,26.7,20.0,30.14,NW,307,1.0,2.0,76,0.00,,,0.00,weatherlink.com 1.10,2013-03-03 05:01:00,
2013-03-03 00:16:00,26.7,20.0,30.13,NNE,13,1.0,2.0,77,0.00,,,0.00,weatherlink.com 1.10,2013-03-03 05:16:00,
2013-03-03 00:31:00,26.6,20.0,30.13,NW,312,1.0,3.0,77,0.00,,,0.00,weatherlink.com 1.10,2013-03-03 05:31:00,
2013-03-03 00:46:00,26.7,20.0,30.13,NW,304,1.0,3.0,77,0.00,,,0.00,weatherlink.com 1.10,2013-03-03 05:46:00,
2013-03-03 01:01:00,26.7,20.0,30.13,NW,315,1.0,4.0,77,0.00,,,0.00,weatherlink.com 1.10,2013-03-03 06:01:00,
2013-03-03 01:16:00,27.0,20.0,30.13,North,353,1.0,4.0,76,0.00,,,0.00,weatherlink.com 1.10,2013-03-03 06:16:00,
2013-03-03 01:31:00,27.1,20.0,30.13,NW,316,4.0,5.0,75,0.00,,,0.00,weatherlink.com 1.10,2013-03-03 06:31:00,
2013-03-03 01:46:00,27.0,20.0,30.13,NNE,28,0.0,7.0,74,0.00,,,0.00,weatherlink.com 1.10,2013-03-03 06:46:00,
2013-03-03 02:01:00,26.9,19.0,30.13,NW,307,5.0,9.0,73,0.00,,,0.00,weatherlink.com 1.10,2013-03-03 07:01:00,
2013-03-03 02:17:00,26.9,19.0,30.13,NW,307,4.0,11.0,73,0.00,,,0.00,weatherlink.com 1.10,2013-03-03 07:17:00,
2013-03-03 02:32:00,26.8,19.0,30.13,NW,321,4.0,7.0,72,0.00,,,0.00,weatherlink.com 1.10,2013-03-03 07:32:00,
2013-03-03 02:47:00,26.7,18.0,30.12,NW,313,2.0,8.0,71,0.00,,,0.00,weatherlink.com 1.10,2013-03-03 07:47:00,
2013-03-03 03:02:00,26.5,18.0,30.12,NW,315,5.0,11.0,70,0.00,,,0.00,weatherlink.com 1.10,2013-03-03 08:02:00,
2013-03-03 03:17:00,26.3,18.0,30.11,WNW,300,1.0,11.0,70,0.00,,,0.00,weatherlink.com 1.10,2013-03-03 08:17:00,
2013-03-03 03:32:00,26.1,17.0,30.11,NW,321,3.0,9.0,69,0.00,,,0.00,weatherlink.com 1.10,2013-03-03 08:32:00,
2013-03-03 03:47:00,25.9,17.0,30.11,NE,37,2.0,9.0,68,0.00,,,0.00,weatherlink.com 1.10,2013-03-03 08:47:00,
2013-03-03 04:02:00,25.7,17.0,30.11,NNW,336,2.0,5.0,70,0.00,,,0.00,weatherlink.com 1.10,2013-03-03 09:02:00,
2013-03-03 04:17:00,25.6,17.0,30.12,North,349,2.0,7.0,70,0.00,,,0.00,weatherlink.com 1.10,2013-03-03 09:17:00,
2013-03-03 04:32:00,25.4,17.0,30.11,NW,312,2.0,6.0,71,0.00,,,0.00,weatherlink.com 1.10,2013-03-03 09:32:00,
2013-03-03 04:47:00,25.2,17.0,30.11,WNW,291,7.0,9.0,72,0.00,,,0.00,weatherlink.com 1.10,2013-03-03 09:47:00,
2013-03-03 05:02:00,25.0,17.0,30.11,North,7,3.0,10.0,71,0.00,,,0.00,weatherlink.com 1.10,2013-03-03 10:02:00,
2013-03-03 05:17:00,24.7,17.0,30.11,NNE,27,4.0,6.0,73,0.00,,,0.00,weatherlink.com 1.10,2013-03-03 10:17:00,
2013-03-03 05:32:00,24.4,17.0,30.11,NNW,338,4.0,7.0,73,0.00,,,0.00,weatherlink.com 1.10,2013-03-03 10:32:00,
2013-03-03 05:47:00,24.0,17.0,30.12,North,360,5.0,7.0,73,0.00,,,0.00,weatherlink.com 1.10,2013-03-03 10:47:00,
2013-03-03 06:02:00,23.8,17.0,30.12,NW,322,5.0,6.0,75,0.00,,,0.00,weatherlink.com 1.10,2013-03-03 11:02:00,
2013-03-03 06:32:00,23.3,16.0,30.12,North,359,1.0,6.0,74,0.00,,,0.00,weatherlink.com 1.10,2013-03-03 11:32:00,
2013-03-03 06:47:00,22.8,16.0,30.13,NW,325,0.0,5.0,75,0.00,,,0.00,weatherlink.com 1.10,2013-03-03 11:47:00,
2013-03-03 07:02:00,22.4,16.0,30.13,NW,307,1.0,5.0,75,0.00,,,0.00,weatherlink.com 1.10,2013-03-03 12:02:00,
2013-03-03 07:17:00,22.3,16.0,30.14,NW,314,1.0,4.0,76,0.00,,,0.00,weatherlink.com 1.10,2013-03-03 12:17:00,
2013-03-03 07:32:00,22.3,16.0,30.14,NW,321,1.0,4.0,76,0.00,,,0.00,weatherlink.com 1.10,2013-03-03 12:32:00,
2013-03-03 07:47:00,22.5,16.0,30.14,NW,304,4.0,7.0,76,0.00,,,0.00,weatherlink.com 1.10,2013-03-03 12:47:00,
2013-03-03 08:02:00,22.8,16.0,30.15,NW,312,2.0,6.0,74,0.00,,,0.00,weatherlink.com 1.10,2013-03-03 13:02:00,
2013-03-03 08:17:00,23.1,16.0,30.15,NW,305,4.0,6.0,75,0.00,,,0.00,weatherlink.com 1.10,2013-03-03 13:17:00,
2013-03-03 08:32:00,23.1,16.0,30.15,NW,309,7.0,10.0,73,0.00,,,0.00,weatherlink.com 1.10,2013-03-03 13:32:00,
2013-03-03 08:47:00,23.5,16.0,30.15,North,352,3.0,7.0,73,0.00,,,0.00,weatherlink.com 1.10,2013-03-03 13:47:00,
2013-03-03 09:02:00,24.0,16.0,30.15,NW,315,3.0,10.0,72,0.00,,,0.00,weatherlink.com 1.10,2013-03-03 14:02:00,
2013-03-03 09:17:00,24.1,16.0,30.15,NW,325,6.0,14.0,72,0.00,,,0.00,weatherlink.com 1.10,2013-03-03 14:17:00,
2013-03-03 09:32:00,24.6,16.0,30.15,WNW,292,4.0,9.0,71,0.00,,,0.00,weatherlink.com 1.10,2013-03-03 14:32:00,
2013-03-03 09:47:00,25.1,17.0,30.15,NW,323,0.0,6.0,72,0.00,,,0.00,weatherlink.com 1.10,2013-03-03 14:47:00,
2013-03-03 10:02:00,25.7,17.0,30.15,NE,45,1.0,7.0,70,0.00,,,0.00,weatherlink.com 1.10,2013-03-03 15:02:00,
2013-03-03 10:17:00,25.8,17.0,30.15,WNW,284,2.0,7.0,70,0.00,,,0.00,weatherlink.com 1.10,2013-03-03 15:17:00,
2013-03-03 10:32:00,25.7,18.0,30.14,WNW,283,4.0,9.0,71,0.00,,,0.00,weatherlink.com 1.10,2013-03-03 15:32:00,
2013-03-03 10:47:00,25.9,18.0,30.14,WNW,295,5.0,9.0,71,0.00,,,0.00,weatherlink.com 1.10,2013-03-03 15:47:00,
2013-03-03 11:02:00,26.2,18.0,30.14,NW,307,6.0,10.0,72,0.00,,,0.00,weatherlink.com 1.10,2013-03-03 16:02:00,
2013-03-03 11:17:00,26.4,19.0,30.14,WNW,287,5.0,9.0,72,0.00,,,0.00,weatherlink.com 1.10,2013-03-03 16:17:00,
2013-03-03 11:32:00,27.6,20.0,30.14,WNW,301,1.0,8.0,73,0.00,,,0.00,weatherlink.com 1.10,2013-03-03 16:32:00,
2013-03-03 11:47:00,27.1,19.0,30.13,NW,307,3.0,12.0,71,0.00,,,0.00,weatherlink.com 1.10,2013-03-03 16:47:00,
2013-03-03 12:03:00,27.2,20.0,30.13,WNW,295,8.0,10.0,73,0.00,,,0.00,weatherlink.com 1.10,2013-03-03 17:03:00,
2013-03-03 12:18:00,27.7,19.0,30.13,WNW,301,3.0,12.0,71,0.00,,,0.00,weatherlink.com 1.10,2013-03-03 17:18:00,
2013-03-03 12:33:00,28.0,20.0,30.12,WNW,299,2.0,11.0,71,0.00,,,0.00,weatherlink.com 1.10,2013-03-03 17:33:00,
2013-03-03 12:48:00,28.3,18.0,30.11,West,273,11.0,15.0,66,0.00,,,0.00,weatherlink.com 1.10,2013-03-03 17:48:00,
2013-03-03 13:03:00,28.7,19.0,30.11,NW,311,3.0,11.0,66,0.00,,,0.00,weatherlink.com 1.10,2013-03-03 18:03:00,
2013-03-03 13:18:00,28.5,19.0,30.11,West,264,6.0,11.0,68,0.00,,,0.00,weatherlink.com 1.10,2013-03-03 18:18:00,
2013-03-03 13:33:00,28.4,18.0,30.10,NW,316,6.0,11.0,66,0.00,,,0.00,weatherlink.com 1.10,2013-03-03 18:33:00,
2013-03-03 13:48:00,29.4,19.0,30.10,WNW,295,3.0,11.0,65,0.00,,,0.00,weatherlink.com 1.10,2013-03-03 18:48:00,
2013-03-03 14:03:00,29.4,19.0,30.09,WNW,288,5.0,11.0,64,0.00,,,0.00,weatherlink.com 1.10,2013-03-03 19:03:00,
2013-03-03 14:18:00,29.6,19.0,30.09,WNW,283,7.0,19.0,64,0.00,,,0.00,weatherlink.com 1.10,2013-03-03 19:18:00,
2013-03-03 14:33:00,29.7,20.0,30.09,West,266,6.0,14.0,68,0.00,,,0.00,weatherlink.com 1.10,2013-03-03 19:33:00,
2013-03-03 14:48:00,29.4,21.0,30.09,West,281,5.0,14.0,70,0.00,,,0.00,weatherlink.com 1.10,2013-03-03 19:48:00,
2013-03-03 15:03:00,29.4,19.0,30.09,NW,305,5.0,12.0,66,0.00,,,0.00,weatherlink.com 1.10,2013-03-03 20:03:00,
2013-03-03 15:18:00,29.8,21.0,30.09,WNW,288,5.0,14.0,69,0.00,,,0.00,weatherlink.com 1.10,2013-03-03 20:18:00,
2013-03-03 15:33:00,29.7,18.0,30.09,West,281,7.0,14.0,63,0.00,,,0.00,weatherlink.com 1.10,2013-03-03 20:33:00,
2013-03-03 15:48:00,29.4,19.0,30.09,WNW,298,7.0,13.0,64,0.00,,,0.00,weatherlink.com 1.10,2013-03-03 20:48:00,
2013-03-03 16:03:00,30.1,18.0,30.09,WNW,283,10.0,12.0,61,0.00,,,0.00,weatherlink.com 1.10,2013-03-03 21:03:00,
2013-03-03 16:18:00,30.0,18.0,30.09,NW,309,8.0,13.0,62,0.00,,,0.00,weatherlink.com 1.10,2013-03-03 21:18:00,
2013-03-03 16:33:00,30.2,18.0,30.09,West,273,9.0,12.0,62,0.00,,,0.00,weatherlink.com 1.10,2013-03-03 21:33:00,
2013-03-03 16:48:00,30.1,18.0,30.09,NW,319,9.0,13.0,60,0.00,,,0.00,weatherlink.com 1.10,2013-03-03 21:48:00,
2013-03-03 17:03:00,30.4,19.0,30.09,West,270,7.0,11.0,62,0.00,,,0.00,weatherlink.com 1.10,2013-03-03 22:03:00,
2013-03-03 17:18:00,29.4,18.0,30.09,NW,307,8.0,12.0,62,0.00,,,0.00,weatherlink.com 1.10,2013-03-03 22:18:00,
2013-03-03 17:33:00,29.5,19.0,30.10,NW,311,7.0,9.0,64,0.00,,,0.00,weatherlink.com 1.10,2013-03-03 22:33:00,
2013-03-03 17:48:00,29.3,19.0,30.10,NW,317,6.0,11.0,65,0.00,,,0.00,weatherlink.com 1.10,2013-03-03 22:48:00,
2013-03-03 18:03:00,29.4,19.0,30.10,WNW,295,3.0,11.0,66,0.00,,,0.00,weatherlink.com 1.10,2013-03-03 23:03:00,
2013-03-03 18:18:00,28.9,19.0,30.10,NW,316,4.0,10.0,66,0.00,,,0.00,weatherlink.com 1.10,2013-03-03 23:18:00,
2013-03-03 18:33:00,28.3,19.0,30.10,WNW,297,4.0,9.0,67,0.00,,,0.00,weatherlink.com 1.10,2013-03-03 23:33:00,
2013-03-03 18:48:00,27.8,18.0,30.11,WNW,287,4.0,12.0,67,0.00,,,0.00,weatherlink.com 1.10,2013-03-03 23:48:00,
2013-03-03 19:03:00,27.4,18.0,30.11,WNW,293,5.0,9.0,67,0.00,,,0.00,weatherlink.com 1.10,2013-03-04 00:03:00,
2013-03-03 19:18:00,27.1,17.0,30.12,NW,307,3.0,8.0,67,0.00,,,0.00,weatherlink.com 1.10,2013-03-04 00:18:00,
2013-03-03 19:33:00,26.9,17.0,30.12,NW,307,7.0,8.0,67,0.00,,,0.00,weatherlink.com 1.10,2013-03-04 00:33:00,
2013-03-03 19:48:00,26.5,18.0,30.13,NW,313,3.0,8.0,69,0.00,,,0.00,weatherlink.com 1.10,2013-03-04 00:48:00,
2013-03-03 20:03:00,26.2,18.0,30.13,WNW,297,2.0,7.0,70,0.00,,,0.00,weatherlink.com 1.10,2013-03-04 01:03:00,
2013-03-03 20:18:00,25.9,18.0,30.13,WNW,293,2.0,6.0,71,0.00,,,0.00,weatherlink.com 1.10,2013-03-04 01:18:00,
2013-03-03 20:33:00,25.5,17.0,30.13,NW,309,2.0,7.0,71,0.00,,,0.00,weatherlink.com 1.10,2013-03-04 01:33:00,
2013-03-03 20:48:00,25.2,17.0,30.13,NW,307,1.0,5.0,72,0.00,,,0.00,weatherlink.com 1.10,2013-03-04 01:48:00,
2013-03-03 21:03:00,24.6,17.0,30.13,WNW,298,0.0,3.0,73,0.00,,,0.00,weatherlink.com 1.10,2013-03-04 02:03:00,
2013-03-03 21:18:00,23.4,17.0,30.14,WNW,298,0.0,0.0,75,0.00,,,0.00,weatherlink.com 1.10,2013-03-04 02:18:00,
2013-03-03 21:33:00,21.6,16.0,30.14,WNW,298,0.0,0.0,78,0.00,,,0.00,weatherlink.com 1.10,2013-03-04 02:33:00,
2013-03-03 21:48:00,20.7,16.0,30.14,WNW,298,0.0,0.0,83,0.00,,,0.00,weatherlink.com 1.10,2013-03-04 02:48:00,
2013-03-03 22:03:00,20.3,16.0,30.14,WNW,298,0.0,1.0,84,0.00,,,0.00,weatherlink.com 1.10,2013-03-04 03:03:00,
2013-03-03 22:18:00,20.8,17.0,30.14,WNW,298,0.0,1.0,85,0.00,,,0.00,weatherlink.com 1.10,2013-03-04 03:18:00,
2013-03-03 22:33:00,20.0,16.0,30.14,WNW,298,0.0,0.0,83,0.00,,,0.00,weatherlink.com 1.10,2013-03-04 03:33:00,
2013-03-03 22:48:00,18.1,14.0,30.14,WNW,298,0.0,0.0,84,0.00,,,0.00,weatherlink.com 1.10,2013-03-04 03:48:00,
2013-03-03 23:03:00,17.1,14.0,30.14,WNW,298,0.0,0.0,87,0.00,,,0.00,weatherlink.com 1.10,2013-03-04 04:03:00,
2013-03-03 23:18:00,17.6,15.0,30.14,WNW,298,0.0,0.0,88,0.00,,,0.00,weatherlink.com 1.10,2013-03-04 04:18:00,
2013-03-03 23:33:00,17.5,15.0,30.15,WNW,298,0.0,0.0,88,0.00,,,0.00,weatherlink.com 1.10,2013-03-04 04:33:00,
2013-03-03 23:49:00,17.7,15.0,30.15,South,174,0.0,1.0,88,0.00,,,0.00,weatherlink.com 1.10,2013-03-04 04:49:00,